Time,TemperatureF,DewpointF,PressureIn,WindDirection,WindDirectionDegrees,WindSpeedMPH,WindSpeedGustMPH,Humidity,HourlyPrecipIn,Conditions,Clouds,dailyrainin,SoftwareType,DateUTC
2013-05-08 00:01:00,53.0,49.0,30.11,West,275,0.0,4.0,85,0.00,,,0.00,,2013-05-08 07:01:00,
2013-05-08 00:11:00,53.0,49.0,30.11,West,275,0.0,4.0,85,0.00,,,0.00,,2013-05-08 07:11:00,
2013-05-08 00:21:00,53.0,49.0,30.11,WSW,250,2.0,6.0,85,0.00,,,0.00,,2013-05-08 07:21:00,
2013-05-08 00:31:00,53.0,49.0,30.11,West,264,3.0,5.0,85,0.00,,,0.00,,2013-05-08 07:31:00,
2013-05-08 00:41:00,53.0,49.0,30.11,West,264,3.0,5.0,85,0.00,,,0.00,,2013-05-08 07:41:00,
2013-05-08 00:52:00,53.0,49.0,30.11,SW,233,2.0,5.0,85,0.00,,,0.00,,2013-05-08 07:52:00,
2013-05-08 01:01:00,53.0,49.0,30.11,South,186,3.0,7.0,86,0.00,,,0.00,,2013-05-08 08:01:00,
2013-05-08 01:11:00,53.0,49.0,30.11,South,186,3.0,7.0,86,0.00,,,0.00,,2013-05-08 08:11:00,
2013-05-08 01:21:00,53.0,49.0,30.11,SE,142,1.0,4.0,86,0.00,,,0.00,,2013-05-08 08:21:00,
2013-05-08 01:31:00,53.0,49.0,30.11,West,279,1.0,3.0,86,0.00,,,0.00,,2013-05-08 08:31:00,
2013-05-08 01:42:00,53.0,49.0,30.11,West,279,1.0,3.0,86,0.00,,,0.00,,2013-05-08 08:42:00,
2013-05-08 01:52:00,53.0,49.0,30.11,WNW,286,0.0,5.0,85,0.00,,,0.00,,2013-05-08 08:52:00,
2013-05-08 02:01:00,53.0,49.0,30.11,SW,226,2.0,5.0,85,0.00,,,0.00,,2013-05-08 09:01:00,
2013-05-08 02:11:00,53.0,49.0,30.11,SW,226,2.0,5.0,85,0.00,,,0.00,,2013-05-08 09:11:00,
2013-05-08 02:21:00,53.0,49.0,30.11,ENE,67,0.0,6.0,85,0.00,,,0.00,,2013-05-08 09:21:00,
2013-05-08 02:32:00,53.0,49.0,30.11,West,269,2.0,6.0,86,0.00,,,0.00,,2013-05-08 09:32:00,
2013-05-08 02:42:00,53.0,49.0,30.11,West,269,2.0,6.0,86,0.00,,,0.00,,2013-05-08 09:42:00,
2013-05-08 02:53:00,53.0,49.0,30.11,SE,138,3.0,7.0,86,0.00,,,0.00,,2013-05-08 09:53:00,
2013-05-08 03:02:00,53.0,49.0,30.11,SE,130,1.0,6.0,86,0.00,,,0.00,,2013-05-08 10:02:00,
2013-05-08 03:12:00,53.0,49.0,30.11,SE,130,1.0,6.0,86,0.00,,,0.00,,2013-05-08 10:12:00,
2013-05-08 03:22:00,53.0,49.0,30.11,West,264,2.0,5.0,86,0.00,,,0.00,,2013-05-08 10:22:00,
2013-05-08 03:33:00,52.0,48.0,30.11,WSW,240,2.0,4.0,87,0.00,,,0.00,,2013-05-08 10:33:00,
2013-05-08 03:42:00,52.0,48.0,30.11,WSW,240,2.0,4.0,87,0.00,,,0.00,,2013-05-08 10:42:00,
2013-05-08 03:52:00,52.0,48.0,30.11,West,269,1.0,5.0,87,0.00,,,0.00,,2013-05-08 10:52:00,
2013-05-08 04:02:00,52.0,48.0,30.11,SW,225,2.0,5.0,87,0.00,,,0.00,,2013-05-08 11:02:00,
2013-05-08 04:11:00,52.0,48.0,30.11,SW,225,2.0,5.0,87,0.00,,,0.00,,2013-05-08 11:11:00,
2013-05-08 04:22:00,52.0,48.0,30.11,SE,140,1.0,4.0,87,0.00,,,0.00,,2013-05-08 11:22:00,
2013-05-08 04:32:00,52.0,48.0,30.12,South,176,1.0,7.0,86,0.00,,,0.00,,2013-05-08 11:32:00,
2013-05-08 04:41:00,52.0,48.0,30.12,South,176,1.0,7.0,86,0.00,,,0.00,,2013-05-08 11:41:00,
2013-05-08 04:52:00,52.0,48.0,30.12,SSW,196,1.0,7.0,86,0.00,,,0.00,,2013-05-08 11:52:00,
2013-05-08 05:01:00,52.0,48.0,30.12,SW,230,0.0,3.0,86,0.00,,,0.00,,2013-05-08 12:01:00,
2013-05-08 05:11:00,52.0,48.0,30.12,SW,230,0.0,3.0,86,0.00,,,0.00,,2013-05-08 12:11:00,
2013-05-08 05:21:00,52.0,48.0,30.12,West,262,2.0,4.0,87,0.00,,,0.00,,2013-05-08 12:21:00,
2013-05-08 05:31:00,52.0,49.0,30.12,West,261,0.0,3.0,88,0.00,,,0.00,,2013-05-08 12:31:00,
2013-05-08 05:41:00,52.0,49.0,30.12,West,261,0.0,3.0,88,0.00,,,0.00,,2013-05-08 12:41:00,
2013-05-08 05:52:00,52.0,49.0,30.13,West,261,0.0,2.0,89,0.00,,,0.00,,2013-05-08 12:52:00,
2013-05-08 06:01:00,52.0,49.0,30.13,ESE,116,0.0,3.0,88,0.00,,,0.00,,2013-05-08 13:01:00,
2013-05-08 06:11:00,52.0,49.0,30.13,ESE,116,0.0,3.0,88,0.00,,,0.00,,2013-05-08 13:11:00,
2013-05-08 06:21:00,52.0,49.0,30.13,SE,135,1.0,2.0,88,0.00,,,0.00,,2013-05-08 13:21:00,
2013-05-08 06:32:00,52.0,48.0,30.13,ESE,121,0.0,4.0,87,0.00,,,0.00,,2013-05-08 13:32:00,
2013-05-08 06:42:00,52.0,48.0,30.13,ESE,121,0.0,4.0,87,0.00,,,0.00,,2013-05-08 13:42:00,
2013-05-08 06:52:00,52.0,48.0,30.14,SSE,167,0.0,3.0,87,0.00,,,0.00,,2013-05-08 13:52:00,
2013-05-08 07:01:00,52.0,48.0,30.14,SSE,167,0.0,2.0,87,0.00,,,0.00,,2013-05-08 14:01:00,
2013-05-08 07:11:00,52.0,48.0,30.14,SSE,167,0.0,2.0,87,0.00,,,0.00,,2013-05-08 14:11:00,
2013-05-08 07:21:00,52.0,48.0,30.14,SSE,167,0.0,2.0,87,0.00,,,0.00,,2013-05-08 14:21:00,
2013-05-08 07:31:00,52.0,49.0,30.14,SSE,167,0.0,2.0,88,0.00,,,0.00,,2013-05-08 14:31:00,
2013-05-08 07:41:00,52.0,49.0,30.14,SSE,167,0.0,2.0,88,0.00,,,0.00,,2013-05-08 14:41:00,
2013-05-08 07:52:00,52.0,49.0,30.15,SSE,168,0.0,1.0,89,0.00,,,0.00,,2013-05-08 14:52:00,
2013-05-08 08:01:00,52.0,49.0,30.15,SSE,168,0.0,1.0,89,0.00,,,0.00,,2013-05-08 15:01:00,
2013-05-08 08:11:00,52.0,49.0,30.15,SSE,168,0.0,1.0,89,0.00,,,0.00,,2013-05-08 15:11:00,
2013-05-08 08:21:00,52.0,49.0,30.15,SSE,168,0.0,0.0,89,0.00,,,0.00,,2013-05-08 15:21:00,
2013-05-08 08:32:00,52.0,49.0,30.15,ESE,110,0.0,3.0,88,0.00,,,0.00,,2013-05-08 15:32:00,
2013-05-08 08:42:00,52.0,49.0,30.15,ESE,110,0.0,3.0,88,0.00,,,0.00,,2013-05-08 15:42:00,
2013-05-08 08:52:00,53.0,50.0,30.16,WNW,297,0.0,2.0,88,0.00,,,0.00,,2013-05-08 15:52:00,
2013-05-08 09:02:00,52.0,49.0,30.16,WNW,295,1.0,2.0,88,0.00,,,0.00,,2013-05-08 16:02:00,
2013-05-08 09:12:00,52.0,49.0,30.16,WNW,295,1.0,2.0,88,0.00,,,0.00,,2013-05-08 16:12:00,
2013-05-08 09:23:00,53.0,50.0,30.16,WNW,295,1.0,2.0,89,0.00,,,0.00,,2013-05-08 16:23:00,
2013-05-08 09:33:00,53.0,50.0,30.16,West,267,1.0,3.0,89,0.00,,,0.00,,2013-05-08 16:33:00,
2013-05-08 09:42:00,53.0,50.0,30.16,West,267,1.0,3.0,89,0.00,,,0.00,,2013-05-08 16:42:00,
2013-05-08 09:52:00,53.0,50.0,30.17,West,266,1.0,3.0,89,0.00,,,0.00,,2013-05-08 16:52:00,
2013-05-08 10:02:00,53.0,50.0,30.17,West,268,2.0,3.0,88,0.00,,,0.00,,2013-05-08 17:02:00,
2013-05-08 10:11:00,53.0,50.0,30.17,West,268,2.0,3.0,88,0.00,,,0.00,,2013-05-08 17:11:00,
2013-05-08 10:22:00,53.0,50.0,30.17,West,268,1.0,4.0,88,0.00,,,0.00,,2013-05-08 17:22:00,
2013-05-08 10:31:00,53.0,50.0,30.17,West,268,1.0,4.0,88,0.00,,,0.00,,2013-05-08 17:31:00,
2013-05-08 10:41:00,53.0,50.0,30.17,West,268,1.0,4.0,88,0.00,,,0.00,,2013-05-08 17:41:00,
2013-05-08 10:52:00,53.0,50.0,30.18,West,266,1.0,3.0,88,0.00,,,0.00,,2013-05-08 17:52:00,
2013-05-08 11:01:00,53.0,50.0,30.18,West,274,1.0,3.0,88,0.00,,,0.00,,2013-05-08 18:01:00,
2013-05-08 11:11:00,53.0,50.0,30.18,West,274,1.0,3.0,88,0.00,,,0.00,,2013-05-08 18:11:00,
2013-05-08 11:21:00,53.0,50.0,30.18,West,277,2.0,3.0,88,0.00,,,0.00,,2013-05-08 18:21:00,
2013-05-08 11:31:00,53.0,50.0,30.19,West,277,1.0,3.0,89,0.00,,,0.00,,2013-05-08 18:31:00,
2013-05-08 11:41:00,53.0,50.0,30.19,West,277,1.0,3.0,89,0.00,,,0.00,,2013-05-08 18:41:00,
2013-05-08 11:52:00,54.0,51.0,30.19,WSW,258,1.0,3.0,88,0.00,,,0.00,,2013-05-08 18:52:00,
2013-05-08 12:01:00,56.0,52.0,30.19,West,277,2.0,4.0,85,0.00,,,0.00,,2013-05-08 19:01:00,
2013-05-08 12:11:00,56.0,52.0,30.19,West,277,2.0,4.0,85,0.00,,,0.00,,2013-05-08 19:11:00,
2013-05-08 12:21:00,55.0,51.0,30.19,West,277,3.0,5.0,85,0.00,,,0.00,,2013-05-08 19:21:00,
2013-05-08 12:31:00,56.0,52.0,30.19,West,277,2.0,5.0,87,0.00,,,0.00,,2013-05-08 19:31:00,
2013-05-08 12:41:00,56.0,52.0,30.19,West,277,2.0,5.0,87,0.00,,,0.00,,2013-05-08 19:41:00,
2013-05-08 12:52:00,56.0,52.0,30.19,SSW,208,2.0,4.0,88,0.00,,,0.00,,2013-05-08 19:52:00,
2013-05-08 13:01:00,57.0,53.0,30.19,WSW,242,2.0,4.0,86,0.00,,,0.00,,2013-05-08 20:01:00,
2013-05-08 13:11:00,57.0,53.0,30.19,WSW,242,2.0,4.0,86,0.00,,,0.00,,2013-05-08 20:11:00,
2013-05-08 13:22:00,56.0,52.0,30.19,West,266,2.0,4.0,85,0.00,,,0.00,,2013-05-08 20:22:00,
2013-05-08 13:32:00,56.0,52.0,30.19,West,264,2.0,6.0,85,0.00,,,0.00,,2013-05-08 20:32:00,
2013-05-08 13:41:00,57.0,52.0,30.18,West,267,2.0,7.0,84,0.00,,,0.00,,2013-05-08 20:41:00,
2013-05-08 13:52:00,57.0,52.0,30.18,West,267,2.0,7.0,84,0.00,,,0.00,,2013-05-08 20:52:00,
2013-05-08 14:01:00,56.0,51.0,30.18,WNW,301,2.0,6.0,82,0.00,,,0.00,,2013-05-08 21:01:00,
2013-05-08 14:11:00,57.0,51.0,30.18,WNW,290,2.0,7.0,80,0.00,,,0.00,,2013-05-08 21:11:00,
2013-05-08 14:21:00,57.0,51.0,30.18,WNW,290,2.0,7.0,80,0.00,,,0.00,,2013-05-08 21:21:00,
2013-05-08 14:32:00,57.0,51.0,30.18,North,5,3.0,8.0,81,0.00,,,0.00,,2013-05-08 21:32:00,
2013-05-08 14:43:00,57.0,52.0,30.18,West,268,3.0,8.0,82,0.00,,,0.00,,2013-05-08 21:43:00,
2013-05-08 14:52:00,57.0,52.0,30.18,West,268,3.0,8.0,82,0.00,,,0.00,,2013-05-08 21:52:00,
2013-05-08 15:02:00,57.0,52.0,30.18,West,268,3.0,8.0,82,0.00,,,0.00,,2013-05-08 22:02:00,
2013-05-08 15:12:00,57.0,52.0,30.18,West,268,3.0,8.0,82,0.00,,,0.00,,2013-05-08 22:12:00,
2013-05-08 15:22:00,56.0,50.0,30.18,WNW,290,2.0,8.0,81,0.00,,,0.00,,2013-05-08 22:22:00,
2013-05-08 15:32:00,56.0,51.0,30.17,West,270,5.0,8.0,82,0.00,,,0.00,,2013-05-08 22:32:00,
2013-05-08 15:42:00,56.0,51.0,30.17,West,278,2.0,10.0,83,0.00,,,0.00,,2013-05-08 22:42:00,
2013-05-08 15:52:00,56.0,51.0,30.17,West,278,2.0,10.0,83,0.00,,,0.00,,2013-05-08 22:52:00,
2013-05-08 16:01:00,56.0,50.0,30.17,SSW,200,2.0,9.0,81,0.00,,,0.00,,2013-05-08 23:01:00,
2013-05-08 16:11:00,56.0,50.0,30.17,SSW,200,2.0,9.0,81,0.00,,,0.00,,2013-05-08 23:11:00,
2013-05-08 16:22:00,56.0,50.0,30.17,SSW,200,2.0,9.0,81,0.00,,,0.00,,2013-05-08 23:22:00,
2013-05-08 16:32:00,56.0,51.0,30.16,West,277,6.0,9.0,83,0.00,,,0.00,,2013-05-08 23:32:00,
2013-05-08 16:42:00,56.0,51.0,30.16,SW,236,4.0,7.0,84,0.00,,,0.00,,2013-05-08 23:42:00,
2013-05-08 16:52:00,56.0,51.0,30.16,SW,236,4.0,7.0,84,0.00,,,0.00,,2013-05-08 23:52:00,
2013-05-08 17:01:00,55.0,50.0,30.16,West,271,4.0,8.0,84,0.00,,,0.00,,2013-05-09 00:01:00,
2013-05-08 17:11:00,55.0,50.0,30.16,West,271,4.0,8.0,84,0.00,,,0.00,,2013-05-09 00:11:00,
2013-05-08 17:21:00,55.0,50.0,30.17,West,268,3.0,8.0,84,0.00,,,0.00,,2013-05-09 00:21:00,
2013-05-08 17:32:00,55.0,50.0,30.17,West,262,3.0,7.0,84,0.00,,,0.00,,2013-05-09 00:32:00,
2013-05-08 17:42:00,54.0,50.0,30.17,West,275,2.0,7.0,85,0.00,,,0.00,,2013-05-09 00:42:00,
2013-05-08 17:52:00,54.0,50.0,30.17,West,275,2.0,7.0,85,0.00,,,0.00,,2013-05-09 00:52:00,
2013-05-08 18:01:00,54.0,50.0,30.17,West,277,2.0,7.0,85,0.00,,,0.00,,2013-05-09 01:01:00,
2013-05-08 18:11:00,54.0,50.0,30.17,West,277,2.0,7.0,85,0.00,,,0.00,,2013-05-09 01:11:00,
2013-05-08 18:22:00,54.0,50.0,30.17,WSW,239,2.0,5.0,85,0.00,,,0.00,,2013-05-09 01:22:00,
2013-05-08 18:32:00,54.0,50.0,30.17,West,274,1.0,6.0,86,0.00,,,0.00,,2013-05-09 01:32:00,
2013-05-08 18:42:00,54.0,50.0,30.17,WNW,286,3.0,6.0,86,0.00,,,0.00,,2013-05-09 01:42:00,
2013-05-08 18:52:00,54.0,50.0,30.17,WNW,286,3.0,6.0,86,0.00,,,0.00,,2013-05-09 01:52:00,
2013-05-08 19:01:00,54.0,50.0,30.17,West,267,3.0,6.0,86,0.00,,,0.00,,2013-05-09 02:01:00,
2013-05-08 19:11:00,54.0,50.0,30.17,West,267,3.0,6.0,86,0.00,,,0.00,,2013-05-09 02:11:00,
2013-05-08 19:21:00,54.0,50.0,30.17,WSW,248,2.0,6.0,86,0.00,,,0.00,,2013-05-09 02:21:00,
2013-05-08 19:32:00,53.0,49.0,30.18,West,265,2.0,7.0,86,0.00,,,0.00,,2013-05-09 02:32:00,
2013-05-08 19:41:00,53.0,49.0,30.18,West,265,2.0,7.0,86,0.00,,,0.00,,2013-05-09 02:41:00,
2013-05-08 19:52:00,53.0,49.0,30.18,West,265,2.0,7.0,86,0.00,,,0.00,,2013-05-09 02:52:00,
2013-05-08 20:01:00,53.0,49.0,30.19,NW,304,0.0,4.0,86,0.00,,,0.00,,2013-05-09 03:01:00,
2013-05-08 20:11:00,53.0,49.0,30.19,NW,304,0.0,4.0,86,0.00,,,0.00,,2013-05-09 03:11:00,
2013-05-08 20:21:00,52.0,48.0,30.19,South,188,0.0,4.0,86,0.00,,,0.00,,2013-05-09 03:21:00,
2013-05-08 20:32:00,52.0,48.0,30.19,SSW,206,1.0,3.0,86,0.00,,,0.00,,2013-05-09 03:32:00,
2013-05-08 20:43:00,52.0,48.0,30.19,SSW,206,1.0,3.0,86,0.00,,,0.00,,2013-05-09 03:43:00,
2013-05-08 20:53:00,52.0,48.0,30.19,South,171,0.0,3.0,87,0.00,,,0.00,,2013-05-09 03:53:00,
2013-05-08 21:03:00,53.0,49.0,30.20,SSE,165,0.0,2.0,87,0.00,,,0.00,,2013-05-09 04:03:00,
2013-05-08 21:12:00,53.0,49.0,30.20,SSE,165,0.0,2.0,87,0.00,,,0.00,,2013-05-09 04:12:00,
2013-05-08 21:22:00,53.0,49.0,30.20,SE,136,0.0,2.0,87,0.00,,,0.00,,2013-05-09 04:22:00,
2013-05-08 21:32:00,52.0,48.0,30.20,East,101,0.0,2.0,87,0.00,,,0.00,,2013-05-09 04:32:00,
2013-05-08 21:42:00,52.0,48.0,30.20,East,101,0.0,2.0,87,0.00,,,0.00,,2013-05-09 04:42:00,
2013-05-08 21:53:00,52.0,49.0,30.21,SSE,157,0.0,3.0,88,0.00,,,0.00,,2013-05-09 04:53:00,
2013-05-08 22:02:00,52.0,49.0,30.21,SSE,164,0.0,2.0,88,0.00,,,0.00,,2013-05-09 05:02:00,
2013-05-08 22:11:00,52.0,49.0,30.21,SSE,164,0.0,2.0,88,0.00,,,0.00,,2013-05-09 05:11:00,
2013-05-08 22:22:00,52.0,48.0,30.22,WNW,296,1.0,3.0,87,0.00,,,0.00,,2013-05-09 05:22:00,
2013-05-08 22:32:00,52.0,48.0,30.22,SSE,149,1.0,3.0,87,0.00,,,0.00,,2013-05-09 05:32:00,
2013-05-08 22:42:00,52.0,48.0,30.22,SSE,149,1.0,3.0,87,0.00,,,0.00,,2013-05-09 05:42:00,
2013-05-08 22:52:00,52.0,48.0,30.22,ESE,122,2.0,7.0,87,0.00,,,0.00,,2013-05-09 05:52:00,
2013-05-08 23:01:00,52.0,48.0,30.22,SSE,153,0.0,3.0,87,0.00,,,0.00,,2013-05-09 06:01:00,
2013-05-08 23:11:00,52.0,48.0,30.22,SSE,153,0.0,3.0,87,0.00,,,0.00,,2013-05-09 06:11:00,
2013-05-08 23:21:00,52.0,49.0,30.22,East,90,0.0,2.0,88,0.00,,,0.00,,2013-05-09 06:21:00,
2013-05-08 23:32:00,52.0,49.0,30.22,SSE,157,0.0,3.0,88,0.00,,,0.00,,2013-05-09 06:32:00,
2013-05-08 23:42:00,52.0,49.0,30.22,SSE,157,0.0,3.0,88,0.00,,,0.00,,2013-05-09 06:42:00,
2013-05-08 23:52:00,52.0,49.0,30.22,SSE,157,0.0,2.0,88,0.00,,,0.00,,2013-05-09 06:52:00,